Date String (YYYY-MM-DD hh:mm:ss) UTC,Instrument flags,absolute air pressure of the measurement (hPa),sample flow rate (lpm),inlet stack bypass flow (lpm),air temperature of the measurement (°C),ambient temperature measured by the external sensor (°C),aerosol sample conditioner tube jacket temperature (°C),OPC LED temperature (°C),internal box temperature (°C),relative humidity of the measurement (%),span deviation,mass concentration of particles derived from Lorenz-Mie calculation of OPC scattering (μg/m³),mass concentration of particles derived from Lorenz-Mie calculation of OPC scattering (μg/m³),mass concentration of particles derived from Lorenz-Mie calculation of OPC scattering (μg/m³)
DateTimeUTC,F1_M11,P_M11,Q1_M11,Q2_M11,T1_M11,T2_M11,T3_M11,T4_M11,T5_M11,U1_M11,ZSPAN_M11,X0_M11,X2_M11,X1_M11
2024-02-02 18:00:00,SystemResetWarning,0816.9,5.01,000.00,022.1,021.5,000.0,030.5,023.9,14.2,0000.0,0010.74,0004.83,0004.20
2024-02-02 18:01:00,SystemResetWarning,0816.9,4.99,000.00,022.1,021.5,000.0,030.5,023.9,14.2,0000.0,0010.59,0004.80,0004.21
2024-02-02 18:02:00,SystemResetWarning,0816.9,4.99,000.00,022.1,021.5,000.0,030.5,023.9,13.6,0000.0,0010.55,0004.79,0004.21
2024-02-02 18:03:00,SystemResetWarning,0816.9,5.01,000.00,022.2,021.6,000.0,030.5,023.9,13.5,0000.0,0009.84,0004.74,0004.20
2024-02-02 18:04:00,SystemResetWarning,0816.9,5.01,000.00,022.2,021.6,000.0,030.5,023.9,13.4,0000.0,0009.14,0004.71,0004.19
2024-02-02 18:05:00,SystemResetWarning,0816.9,4.99,000.00,022.2,021.6,000.0,030.5,023.9,13.5,0000.0,0008.86,0004.68,0004.18
2024-02-02 18:06:00,SystemResetWarning,0816.9,4.99,000.00,022.2,021.6,000.0,030.5,023.9,13.5,0000.0,0008.80,0004.65,0004.15
2024-02-02 18:07:00,SystemResetWarning,0816.9,5.01,000.00,022.2,021.6,000.0,030.5,024.0,13.4,0000.0,0008.75,0004.62,0004.13
2024-02-02 18:08:00,SystemResetWarning,0816.8,5.01,000.00,022.2,021.6,000.0,030.5,024.0,13.3,0000.0,0008.69,0004.61,0004.11
2024-02-02 18:09:00,SystemResetWarning,0816.8,4.99,000.00,022.2,021.6,000.0,030.5,024.0,13.5,0000.0,0008.71,0004.61,0004.11
2024-02-02 18:10:00,SystemResetWarning,0816.9,4.99,000.00,022.2,021.6,000.0,030.5,024.0,13.9,0000.0,0009.44,0004.62,0004.11
2024-02-02 18:11:00,SystemResetWarning,0816.8,5.00,000.00,022.2,021.6,000.0,030.5,024.0,14.1,0000.0,0009.34,0004.59,0004.09
2024-02-02 18:12:00,SystemResetWarning,0816.8,5.01,000.00,022.2,021.7,000.0,030.5,024.0,13.9,0000.0,0009.31,0004.58,0004.08
2024-02-02 18:13:00,SystemResetWarning,0816.7,5.01,000.00,022.2,021.7,000.0,030.5,024.0,13.8,0000.0,0009.20,0004.57,0004.08
2024-02-02 18:14:00,SystemResetWarning,0816.8,4.99,000.00,022.2,021.7,000.0,030.6,024.0,13.9,0000.0,0009.28,0004.57,0004.10
2024-02-02 18:15:00,SystemResetWarning,0816.7,5.00,000.00,022.3,021.7,000.0,030.6,024.1,13.9,0000.0,0009.67,0004.59,0004.09
2024-02-02 18:16:00,SystemResetWarning,0816.7,5.00,000.00,022.3,021.7,000.0,030.6,024.1,13.7,0000.0,0010.63,0004.64,0004.11
2024-02-02 18:17:00,SystemResetWarning,0816.7,5.00,000.00,022.3,021.7,000.0,030.6,024.0,14.0,0000.0,0010.99,0004.70,0004.14
2024-02-02 18:18:00,SystemResetWarning,0816.7,5.00,000.00,022.3,021.7,000.0,030.6,024.0,13.9,0000.0,0011.72,0004.75,0004.17
2024-02-02 18:19:00,SystemResetWarning,0816.6,5.00,000.00,022.3,021.7,000.0,030.6,024.1,13.8,0000.0,0011.93,0004.79,0004.19
2024-02-02 18:20:00,SystemResetWarning,0816.6,5.00,000.00,022.3,021.7,000.0,030.6,024.1,13.7,0000.0,0012.01,0004.81,0004.21
2024-02-02 18:21:00,SystemResetWarning,0816.5,5.00,000.00,022.3,021.7,000.0,030.6,024.1,13.7,0000.0,0010.94,0004.86,0004.23
2024-02-02 18:22:00,SystemResetWarning,0816.5,5.00,000.00,022.3,021.7,000.0,030.6,024.1,13.7,0000.0,0011.24,0004.88,0004.24
2024-02-02 18:23:00,SystemResetWarning,0816.5,5.00,000.00,022.3,021.7,000.0,030.6,024.1,13.5,0000.0,0011.51,0004.93,0004.25
2024-02-02 18:24:00,SystemResetWarning,0816.5,5.00,000.00,022.3,021.8,000.0,030.6,024.1,13.4,0000.0,0012.31,0004.99,0004.27
2024-02-02 18:25:00,SystemResetWarning,0816.5,5.00,000.00,022.3,021.8,000.0,030.6,024.1,13.6,0000.0,0013.54,0005.04,0004.27
2024-02-02 18:26:00,SystemResetWarning,0816.5,5.00,000.00,022.3,021.8,000.0,030.6,024.1,13.6,0000.0,0013.83,0005.05,0004.29
2024-02-02 18:27:00,SystemResetWarning,0816.5,5.00,000.00,022.3,021.8,000.0,030.6,024.1,13.6,0000.0,0013.74,0005.06,0004.31
2024-02-02 18:28:00,SystemResetWarning,0816.4,5.01,000.00,022.3,021.8,000.0,030.7,024.1,13.9,0000.0,0013.44,0005.06,0004.32
2024-02-02 18:29:00,SystemResetWarning,0816.4,5.01,000.00,022.3,021.8,000.0,030.7,024.1,13.7,0000.0,0013.66,0005.06,0004.33
2024-02-02 18:30:00,SystemResetWarning,0816.3,4.99,000.00,022.4,021.8,000.0,030.7,024.1,13.7,0000.0,0013.66,0005.07,0004.33
2024-02-02 18:31:00,SystemResetWarning,0816.3,5.00,000.00,022.4,021.8,000.0,030.7,024.1,13.6,0000.0,0013.60,0005.09,0004.36
2024-02-02 18:32:00,SystemResetWarning,0816.3,5.00,000.00,022.4,021.8,000.0,030.7,024.1,13.6,0000.0,0013.99,0005.12,0004.39
2024-02-02 18:33:00,SystemResetWarning,0816.2,4.99,000.00,022.4,021.8,000.0,030.7,024.2,13.5,0000.0,0013.82,0005.15,0004.42
2024-02-02 18:34:00,SystemResetWarning,0816.2,5.00,000.00,022.4,021.8,000.0,030.7,024.2,13.3,0000.0,0014.09,0005.21,0004.46
2024-02-02 18:35:00,SystemResetWarning,0816.2,5.00,000.00,022.4,021.8,000.0,030.7,024.1,13.3,0000.0,0014.57,0005.22,0004.48
2024-02-02 18:36:00,SystemResetWarning,0816.2,5.01,000.00,022.4,021.8,000.0,030.7,024.1,13.3,0000.0,0013.49,0005.25,0004.51
2024-02-02 18:37:00,SystemResetWarning,0816.1,5.01,000.00,022.4,021.8,000.0,030.7,024.2,13.3,0000.0,0013.20,0005.27,0004.53
2024-02-02 18:38:00,SystemResetWarning,0816.1,5.00,000.00,022.4,021.8,000.0,030.7,024.2,13.7,0000.0,0012.54,0005.30,0004.55
2024-02-02 18:39:00,SystemResetWarning,0816.1,4.99,000.00,022.4,021.8,000.0,030.7,024.2,13.6,0000.0,0012.57,0005.34,0004.56
2024-02-02 18:40:00,SystemResetWarning,0816.1,4.99,000.00,022.4,021.8,000.0,030.7,024.2,13.3,0002.1,0012.42,0005.35,0004.59
2024-02-02 18:41:00,SystemResetWarning,0816.1,5.01,000.00,022.4,021.9,000.0,030.7,024.2,13.3,0004.5,0013.07,0005.41,0004.61
2024-02-02 18:42:00,SystemResetWarning,0816.1,5.01,000.00,022.5,021.9,000.0,030.7,024.2,13.4,0003.9,0013.78,0005.44,0004.62
2024-02-02 18:43:00,SystemResetWarning,0816.1,5.00,000.00,022.5,021.9,000.0,030.8,024.2,13.4,0003.4,0014.10,0005.45,0004.64
2024-02-02 18:44:00,SystemResetWarning,0816.1,5.00,000.00,022.5,021.9,000.0,030.8,024.2,13.2,0003.5,0014.26,0005.45,0004.65
2024-02-02 18:45:00,SystemResetWarning,0816.0,5.00,000.00,022.5,021.9,000.0,030.8,024.2,13.2,0002.6,0014.15,0005.48,0004.64
2024-02-02 18:46:00,SystemResetWarning,0816.0,5.00,000.00,022.5,021.9,000.0,030.8,024.2,13.2,0002.7,0013.79,0005.43,0004.64
2024-02-02 18:47:00,SystemResetWarning,0816.0,5.00,000.00,022.5,021.9,000.0,030.8,024.2,13.3,0003.1,0014.30,0005.43,0004.63
2024-02-02 18:48:00,SystemResetWarning,0816.0,4.99,000.00,022.5,021.9,000.0,030.8,024.2,13.4,0002.8,0014.43,0005.42,0004.63
2024-02-02 18:49:00,SystemResetWarning,0816.0,5.00,000.00,022.5,021.9,000.0,030.8,024.3,13.4,0002.5,0014.31,0005.40,0004.63
2024-02-02 18:50:00,SystemResetWarning,0816.0,5.00,000.00,022.5,021.9,000.0,030.8,024.3,13.2,0002.9,0015.08,0005.39,0004.65
2024-02-02 18:51:00,SystemResetWarning,0816.0,5.01,000.00,022.5,021.9,000.0,030.8,024.3,13.4,0003.5,0014.87,0005.39,0004.66
2024-02-02 18:52:00,SystemResetWarning,0816.0,5.00,000.00,022.5,021.9,000.0,030.8,024.3,13.4,0003.3,0014.30,0005.36,0004.66
2024-02-02 18:53:00,SystemResetWarning,0816.0,4.99,000.00,022.5,021.9,000.0,030.8,024.3,13.5,0003.1,0013.68,0005.33,0004.66
2024-02-02 18:54:00,SystemResetWarning,0815.8,5.00,000.00,022.6,022.0,000.0,030.8,024.3,13.4,0003.3,0014.15,0005.35,0004.67
2024-02-02 18:55:00,SystemResetWarning,0815.8,5.00,000.00,022.6,022.0,000.0,030.8,024.3,13.4,0003.3,0014.07,0005.39,0004.68
2024-02-02 18:56:00,SystemResetWarning,0815.9,5.00,000.00,022.6,022.0,000.0,030.8,024.3,13.5,0003.6,0014.24,0005.36,0004.71
2024-02-02 18:57:00,SystemResetWarning,0815.8,5.01,000.00,022.6,022.0,000.0,030.8,024.3,13.4,0003.8,0014.11,0005.39,0004.74
2024-02-02 18:58:00,SystemResetWarning,0815.8,5.01,000.00,022.6,022.0,000.0,030.8,024.3,13.3,0004.0,0014.38,0005.43,0004.75
2024-02-02 18:59:00,SystemResetWarning,0815.8,5.00,000.00,022.6,022.0,000.0,030.8,024.3,13.3,0004.6,0014.93,0005.47,0004.76
